Regional Weather Roundup
Issued by NWS

Home | Current Version | Previous Version | Graphics & Text | Print | Product List | Glossary On
Versions: 1 2 3 4 5 6 7 8 9 10 11 12 13 14 15 16 17 18 19 20 21 22 23 24 25 26 27 28 29 30 31 32 33 34 35 36 37 38 39 40 41 42 43 44 45 46 47 48 49 50
000
ASUS43 KDTX 300510
RWRMI
MICHIGAN HOURLY REGIONAL WEATHER ROUNDUP
NATIONAL WEATHER SERVICE DETROIT/PONTIAC MI
100 AM EDT THU MAR 30 2017

NOTE: "FAIR" INDICATES FEW OR NO CLOUDS BELOW 12,000 FEET WITH NO
SIGNIFICANT WEATHER AND/OR OBSTRUCTION TO VISIBILITY.

MIZ047>049-052>055-059>063-066>070-074>076-081>083-300600-
SOUTHEAST LOWER MICHIGAN

CITY           SKY/WX    TMP DP  RH WIND       PRES   REMARKS
ADRIAN         CLOUDY    42  33  70 E13       30.15F
ALMA           CLOUDY    35  31  83 NE9       30.24F WCI  28
ANN ARBOR      CLOUDY    40  34  79 NE8       30.16F WCI  34
BAD AXE        CLOUDY    36  27  70 NE7       30.25F WCI  30
CARO           CLOUDY    36  30  79 CALM      30.22F
DETROIT CITY   CLOUDY    40  30  67 N9        30.20F WCI  34
DETROIT        LGT RAIN  41  33  73 NE9       30.18F
FLINT          CLOUDY    37  28  70 NE8       30.22F WCI  31
GROSSE ILE     CLOUDY    40  34  78 NE9       30.17F WCI  34
HILLSDALE      CLOUDY    41  32  70 E15       30.11F
HOWELL         LGT RAIN  39  31  72 NE7       30.18F WCI  34

CITY           SKY/WX    TMP DP  RH WIND       PRES   REMARKS
JACKSON        CLOUDY    42  35  76 NE12      30.15R
LAMBERTVILLE   CLOUDY    44  35  71 NE7       30.16F
LANSING        LGT RAIN  38  32  79 NE14      30.20S WCI  30
LAPEER         CLOUDY    37  30  76 NE6       30.21F WCI  32
MASON          CLOUDY    40  35  83 NE5       30.20R
MONROE         CLOUDY    42  34  74 NE9       30.16F
MT. CLEMENS    CLOUDY    39  31  75 N6        30.18F WCI  34
PONTIAC        CLOUDY    39  28  64 NE6       30.18F WCI  35
PORT HOPE        N/A     36  30  79 NE13      30.24F WCI  27
PORT HURON     CLOUDY    37  32  81 CALM      30.22F
TRI CITIES     CLOUDY    36  31  82 NE12      30.25F WCI  28
MIDLAND        CLOUDY    37  28  71 NE7       30.25S WCI  31
TROY           CLOUDY    40  27  59 N6        30.22F
SAGINAW HB     CLOUDY    36  28  75 N7        30.24F WCI  30
$$
MIZ043>046-050>051-056>058-064>065-071>073-077>080-300600-
SOUTHWEST LOWER MICHIGAN

CITY           SKY/WX    TMP DP  RH WIND       PRES   REMARKS
BATTLE CREEK   LGT RAIN  43  39  86 NE9       30.15R
BENTON HARBOR  CLOUDY    45  38  76 E14       30.06F
BIG RAPIDS     CLOUDY    36  22  57 E12       30.21F WCI  28
COLDWATER      CLOUDY    45  31  58 E14       30.10F
FREMONT        FLURRIES  38  27  64 E13       30.18F WCI  30
HOLLAND        LGT RAIN  39  35  86 E14G22    30.13F WCI  31
GRAND RAPIDS   CLOUDY    36  35  96 NE15      30.16F WCI  27
IONIA          FLURRIES  35  32  88 NE12      30.18F WCI  27
KALAMAZOO      LGT RAIN  44  37  76 NE10      30.12F
LUDINGTON      CLOUDY    40  29  65 E12       30.17F WCI  33
MARSHALL       CLOUDY    42  37  81 NE5       30.14S
MOUNT PLEASANT CLOUDY    36  26  66 E9        30.23F WCI  29
MUSKEGON       CLOUDY    39  33  79 E14       30.16F WCI  31
SOUTH HAVEN    CLOUDY    43  38  82 E12G20    30.08F
$$
MIZ016>042-300600-
NORTHERN LOWER MICHIGAN

CITY           SKY/WX    TMP DP  RH WIND       PRES   REMARKS
ALPENA         CLOUDY    34  27  75 E6        30.30S WCI  29
BEAVER ISLAND  PTCLDY    35  25  67 E9        30.25F WCI  28
BELLAIRE       CLOUDY    37  19  46 E3        30.25F
CADILLAC       CLOUDY    35  19  52 E17       30.20S WCI  24
CHARLEVOIX     CLOUDY    37  22  54 E8        30.27F WCI  31
FRANKFORT      CLOUDY    42  29  61 E8        30.20F
GAYLORD        MOCLDY    35  20  54 SE9       30.23F WCI  28
GRAYLING       CLOUDY    34  21  60 E5        30.25F WCI  30
HARBOR SPRINGS CLOUDY    35  22  58 E8        30.26F WCI  29
HOUGHTON LAKE  CLOUDY    34  22  61 E10       30.24F WCI  26
MANISTEE       CLOUDY    41  27  57 E12G18    30.19F
OSCODA         PTCLDY    37  28  70 NE13G20   30.27F WCI  28
ROGERS CITY    CLOUDY    33  27  76 E3        30.31S
TRAVERSE CITY  CLOUDY    39  20  46 E9        30.23F WCI  33
$$
MIZ007>008-015-300600-
EASTERN UPPER MICHIGAN

CITY           SKY/WX    TMP DP  RH WIND       PRES   REMARKS
KINROSS        CLOUDY    33  23  66 E7        30.29F WCI  27
MACKINAC ISLAN CLOUDY    32  29  88 E7        30.28F WCI  26
NEWBERRY       CLOUDY    30  25  79 E3        30.26F
S. S. MARIE    CLOUDY    34  25  69 E3        30.29F
MUNISING         N/A     31  29  92 N3        30.24F
$$
MIZ004>006-011>014-085-300600-
CENTRAL UPPER MICHIGAN

CITY           SKY/WX    TMP DP  RH WIND       PRES   REMARKS
MANISTIQUE     CLOUDY    34  26  71 E7        30.25F WCI  28
ESCANABA       CLOUDY    35  26  69 NE6       30.22F WCI  30
MENOMINEE      MOCLDY    34  27  75 MISG        N/A
SAWYER-GWINN   CLOUDY    29  27  92 CALM      30.22F
$$
MIZ001>003-009>011-084-300600-
WESTERN UPPER MICHIGAN

CITY           SKY/WX    TMP DP  RH WIND       PRES   REMARKS
IRON MOUNTAIN  CLOUDY    35  22  58 VRB5      30.18F WCI  31
HOUGHTON       CLOUDY    31  26  82 E12       30.20F WCI  22
COPPER HARBOR    N/A     33  28  81 S6        30.23F WCI  28
IRONWOOD       CLOUDY    38  28  67 E3        30.15F
$$

ABBREVIATIONS USED IN REMARKS
   TC - TEMPERATURE IN CELSIUS
  WCI - WIND CHILL INDEX
   HX - HEAT INDEX
  VSB - VISIBILITY




USA.gov is the U.S. government's official web portal to all federal, state and local government web resources and services.